When you browse on this site, cookies collect data to enhance your experience and personalize the content and advertising you see.
Visit our Privacy Policy to learn more. By continuing to use the site, you agree to this use of cookies and data.
  • In United Kingdom
  • List of Countries
  • For 7 days
  • Water Temperature
  • Weather Map
  • Weather Widgets
  • user-avatar
    Login

    Hourly Weather Sydney

    Today, 13 December, Friday

    Time Temperature Precipitation Wind Pressure Humidity
    00:00 +19°C° 0 mm 2 mps 761 mmHg 69%
    01:00 +19°C° 0 mm 2 mps 761 mmHg 70%
    02:00 +19°C° 0 mm 2 mps 760 mmHg 71%
    03:00 +19°C° 0 mm 2 mps 760 mmHg 71%
    04:00 +19°C° 0 mm 2 mps 759 mmHg 75%
    05:00 +19°C° 0.1 mm 2 mps 760 mmHg 73%
    06:00 +19°C° 0.1 mm 2 mps 760 mmHg 71%
    07:00 +20°C° 0.1 mm 2 mps 760 mmHg 70%
    08:00 +21°C° 0.1 mm 2 mps 760 mmHg 67%
    09:00 +21°C° 0.1 mm 2 mps 760 mmHg 64%
    10:00 +24°C° 0 mm 2 mps 760 mmHg 58%
    11:00 +24°C° 0.1 mm 2 mps 760 mmHg 56%
    12:00 +24°C° 0.1 mm 3 mps 759 mmHg 54%
    13:00 +25°C° 0.1 mm 4 mps 759 mmHg 53%
    14:00 +25°C° 0 mm 4 mps 758 mmHg 54%
    15:00 +23°C° 0 mm 5 mps 758 mmHg 56%
    16:00 +23°C° 0 mm 5 mps 757 mmHg 57%
    17:00 +22°C° 0 mm 5 mps 758 mmHg 61%
    18:00 +21°C° 0 mm 4 mps 758 mmHg 65%
    19:00 +21°C° 0 mm 4 mps 759 mmHg 68%
    20:00 +20°C° 0 mm 3 mps 759 mmHg 70%
    21:00 +20°C° 0 mm 3 mps 759 mmHg 72%
    22:00 +19°C° 0 mm 3 mps 759 mmHg 74%
    23:00 +19°C° 0 mm 3 mps 759 mmHg 77%

    Tomorrow, 14 December, Saturday

    Time Temperature Precipitation Wind Pressure Humidity
    00:00 +19°C° 0 mm 3 mps 759 mmHg 79%
    01:00 +19°C° 0 mm 2 mps 759 mmHg 81%
    02:00 +18°C° 0.1 mm 2 mps 758 mmHg 83%
    03:00 +18°C° 0.1 mm 2 mps 758 mmHg 85%
    04:00 +17°C° 0.1 mm 2 mps 757 mmHg 87%
    05:00 +18°C° 0 mm 2 mps 758 mmHg 81%
    06:00 +20°C° 0 mm 2 mps 758 mmHg 74%
    07:00 +21°C° 0 mm 2 mps 758 mmHg 68%
    08:00 +24°C° 0 mm 2 mps 758 mmHg 58%
    09:00 +27°C° 0 mm 2 mps 757 mmHg 49%
    10:00 +29°C° 0 mm 3 mps 757 mmHg 39%
    11:00 +30°C° 0 mm 4 mps 756 mmHg 36%
    12:00 +33°C° 0 mm 5 mps 755 mmHg 32%
    13:00 +34°C° 0 mm 6 mps 755 mmHg 29%
    14:00 +33°C° 0 mm 6 mps 754 mmHg 36%
    15:00 +30°C° 0 mm 7 mps 754 mmHg 44%
    16:00 +29°C° 0 mm 7 mps 754 mmHg 51%
    17:00 +27°C° 0 mm 6 mps 755 mmHg 59%
    18:00 +25°C° 0 mm 4 mps 756 mmHg 67%
    19:00 +22°C° 0 mm 3 mps 756 mmHg 74%
    20:00 +23°C° 0.1 mm 2 mps 757 mmHg 78%
    21:00 +21°C° 0.1 mm 2 mps 758 mmHg 82%
    22:00 +21°C° 0.1 mm 2 mps 758 mmHg 85%
    23:00 +22°C° 0.2 mm 1 mps 758 mmHg 86%

    Day after tomorrow, 15 December, Sunday

    Time Temperature Precipitation Wind Pressure Humidity
    00:00 +21°C° 0.2 mm 1 mps 758 mmHg 87%
    01:00 +21°C° 0.2 mm 1 mps 757 mmHg 88%
    02:00 +21°C° 0.1 mm 1 mps 757 mmHg 89%
    03:00 +21°C° 0.1 mm 1 mps 757 mmHg 90%
    04:00 +20°C° 0.1 mm 1 mps 757 mmHg 90%
    05:00 +21°C° 0 mm 1 mps 757 mmHg 86%
    06:00 +22°C° 0 mm 1 mps 757 mmHg 81%
    07:00 +23°C° 0 mm 1 mps 758 mmHg 77%
    08:00 +26°C° 0 mm 1 mps 757 mmHg 65%
    09:00 +28°C° 0 mm 1 mps 757 mmHg 52%
    10:00 +30°C° 0 mm 1 mps 757 mmHg 40%
    11:00 +32°C° 0 mm 2 mps 756 mmHg 35%
    12:00 +34°C° 0 mm 4 mps 755 mmHg 30%
    13:00 +36°C° 0 mm 5 mps 754 mmHg 25%
    14:00 +34°C° 0 mm 6 mps 754 mmHg 33%
    15:00 +33°C° 0 mm 6 mps 753 mmHg 40%
    16:00 +30°C° 0 mm 7 mps 752 mmHg 48%
    17:00 +29°C° 0 mm 6 mps 753 mmHg 54%
    18:00 +27°C° 0 mm 6 mps 753 mmHg 60%
    19:00 +26°C° 0 mm 5 mps 754 mmHg 66%
    20:00 +25°C° 0 mm 4 mps 754 mmHg 70%
    21:00 +23°C° 0 mm 4 mps 754 mmHg 73%
    22:00 +22°C° 0 mm 3 mps 755 mmHg 77%
    23:00 +22°C° 0 mm 3 mps 754 mmHg 74%

    16 December, Monday

    Time Temperature Precipitation Wind Pressure Humidity
    00:00 +22°C° 0 mm 3 mps 754 mmHg 71%
    01:00 +21°C° 0 mm 2 mps 753 mmHg 69%
    02:00 +21°C° 0 mm 3 mps 754 mmHg 59%
    03:00 +21°C° 0 mm 3 mps 754 mmHg 49%
    04:00 +21°C° 0 mm 4 mps 754 mmHg 39%
    05:00 +21°C° 0 mm 5 mps 755 mmHg 48%
    06:00 +22°C° 0 mm 7 mps 756 mmHg 56%
    07:00 +23°C° 0 mm 9 mps 757 mmHg 64%
    08:00 +23°C° 0 mm 9 mps 757 mmHg 60%
    09:00 +24°C° 0 mm 8 mps 758 mmHg 55%
    10:00 +24°C° 0 mm 8 mps 758 mmHg 51%
    11:00 +26°C° 0 mm 8 mps 758 mmHg 50%
    12:00 +26°C° 0 mm 8 mps 759 mmHg 49%
    13:00 +26°C° 0 mm 8 mps 759 mmHg 48%
    14:00 +26°C° 0 mm 8 mps 759 mmHg 50%
    15:00 +24°C° 0 mm 7 mps 759 mmHg 51%
    16:00 +23°C° 0 mm 7 mps 760 mmHg 52%
    17:00 +23°C° 0 mm 6 mps 761 mmHg 56%
    18:00 +22°C° 0 mm 6 mps 762 mmHg 60%
    19:00 +21°C° 0 mm 5 mps 763 mmHg 63%
    20:00 +20°C° 0 mm 5 mps 763 mmHg 66%
    21:00 +19°C° 0 mm 4 mps 764 mmHg 69%
    22:00 +18°C° 0 mm 4 mps 764 mmHg 71%
    23:00 +18°C° 0 mm 3 mps 764 mmHg 72%

    17 December, Tuesday

    Time Temperature Precipitation Wind Pressure Humidity
    00:00 +17°C° 0 mm 3 mps 764 mmHg 72%
    01:00 +17°C° 0 mm 2 mps 764 mmHg 72%
    02:00 +16°C° 0 mm 2 mps 764 mmHg 73%
    03:00 +16°C° 0 mm 2 mps 764 mmHg 74%
    04:00 +15°C° 0 mm 2 mps 764 mmHg 75%
    05:00 +17°C° 0 mm 2 mps 764 mmHg 68%
    06:00 +19°C° 0 mm 2 mps 764 mmHg 61%
    07:00 +20°C° 0 mm 2 mps 765 mmHg 53%
    08:00 +23°C° 0 mm 2 mps 765 mmHg 48%
    09:00 +25°C° 0 mm 3 mps 765 mmHg 42%
    10:00 +27°C° 0 mm 3 mps 765 mmHg 36%
    11:00 +27°C° 0 mm 3 mps 764 mmHg 36%
    12:00 +27°C° 0 mm 4 mps 764 mmHg 35%
    13:00 +28°C° 0 mm 4 mps 763 mmHg 35%
    14:00 +27°C° 0 mm 5 mps 763 mmHg 36%
    15:00 +27°C° 0 mm 5 mps 763 mmHg 37%
    16:00 +26°C° 0 mm 5 mps 763 mmHg 39%
    17:00 +25°C° 0 mm 5 mps 763 mmHg 45%
    18:00 +22°C° 0 mm 5 mps 763 mmHg 51%
    19:00 +21°C° 0 mm 5 mps 764 mmHg 57%
    20:00 +20°C° 0 mm 4 mps 764 mmHg 61%
    21:00 +19°C° 0 mm 4 mps 765 mmHg 66%
    22:00 +18°C° 0 mm 4 mps 765 mmHg 70%
    23:00 +17°C° 0 mm 3 mps 765 mmHg 73%

    18 December, Wednesday

    Time Temperature Precipitation Wind Pressure Humidity
    00:00 +17°C° 0 mm 3 mps 764 mmHg 75%
    01:00 +16°C° 0 mm 3 mps 764 mmHg 77%
    02:00 +16°C° 0 mm 3 mps 764 mmHg 78%
    03:00 +16°C° 0 mm 2 mps 764 mmHg 79%
    04:00 +15°C° 0 mm 2 mps 764 mmHg 80%
    05:00 +17°C° 0 mm 2 mps 764 mmHg 72%
    06:00 +19°C° 0 mm 2 mps 764 mmHg 64%
    07:00 +20°C° 0 mm 2 mps 764 mmHg 57%
    08:00 +24°C° 0 mm 3 mps 763 mmHg 45%
    09:00 +28°C° 0 mm 4 mps 763 mmHg 33%
    10:00 +32°C° 0 mm 4 mps 763 mmHg 21%
    11:00 +34°C° 0 mm 5 mps 762 mmHg 19%
    12:00 +36°C° 0 mm 6 mps 761 mmHg 17%
    13:00 +39°C° 0 mm 6 mps 761 mmHg 15%
    14:00 +36°C° 0 mm 7 mps 760 mmHg 22%
    15:00 +34°C° 0 mm 8 mps 760 mmHg 28%
    16:00 +32°C° 0 mm 8 mps 759 mmHg 34%
    17:00 +29°C° 0 mm 8 mps 760 mmHg 40%
    18:00 +27°C° 0 mm 7 mps 760 mmHg 45%
    19:00 +24°C° 0 mm 7 mps 760 mmHg 51%
    20:00 +23°C° 0 mm 6 mps 761 mmHg 56%
    21:00 +22°C° 0 mm 5 mps 761 mmHg 62%
    22:00 +21°C° 0 mm 5 mps 761 mmHg 67%
    23:00 +21°C° 0 mm 4 mps 761 mmHg 68%
    Show more